• In Russia
  • List of Countries
  • For 7 days
  • Water Temperature
  • Satellite Maps
  • Weather Map
  • Weather Widgets
  • user-avatar
    Login

    Hourly Weather Czeszyce

    Today, 22 February, Friday

    Time Temperature Precipitation Wind Pressure Humidity
    00:00 +6°C° 0.2 mm 5 mps 755 mmHg 93%
    01:00 +7°C° 0 mm 3 mps 755 mmHg 94%
    02:00 +5°C° 0.5 mm 5 mps 756 mmHg 91%
    03:00 +3°C° 0.5 mm 6 mps 756 mmHg 89%
    04:00 +3°C° 0.5 mm 7 mps 757 mmHg 87%
    05:00 0°C° 0 mm 7 mps 758 mmHg 83%
    06:00 -1°C° 0 mm 7 mps 759 mmHg 79%
    07:00 -2°C° 0 mm 5 mps 761 mmHg 75%
    08:00 -3°C° 0 mm 6 mps 762 mmHg 68%
    09:00 -3°C° 0 mm 6 mps 764 mmHg 61%
    10:00 -3°C° 0 mm 6 mps 765 mmHg 54%
    11:00 -3°C° 0 mm 6 mps 765 mmHg 50%
    12:00 -2°C° 0 mm 6 mps 766 mmHg 46%
    13:00 -1°C° 0 mm 5 mps 767 mmHg 42%
    14:00 -1°C° 0 mm 5 mps 767 mmHg 42%
    15:00 -2°C° 0 mm 5 mps 768 mmHg 42%
    16:00 -2°C° 0 mm 5 mps 768 mmHg 42%
    17:00 -3°C° 0 mm 4 mps 769 mmHg 45%
    18:00 -3°C° 0 mm 4 mps 770 mmHg 48%
    19:00 -4°C° 0 mm 3 mps 770 mmHg 51%
    20:00 -4°C° 0 mm 3 mps 771 mmHg 49%
    21:00 -4°C° 0 mm 3 mps 772 mmHg 47%
    22:00 -4°C° 0 mm 3 mps 772 mmHg 46%
    23:00 -4°C° 0 mm 3 mps 772 mmHg 44%

    Tomorrow, 23 February, Saturday

    Time Temperature Precipitation Wind Pressure Humidity
    00:00 -4°C° 0 mm 3 mps 773 mmHg 42%
    01:00 -3°C° 0 mm 2 mps 773 mmHg 40%
    02:00 -3°C° 0 mm 2 mps 773 mmHg 40%
    03:00 -3°C° 0 mm 2 mps 773 mmHg 39%
    04:00 -4°C° 0 mm 2 mps 773 mmHg 39%
    05:00 -2°C° 0 mm 1 mps 773 mmHg 39%
    06:00 -2°C° 0 mm 1 mps 773 mmHg 39%
    07:00 -2°C° 0 mm 1 mps 773 mmHg 39%
    08:00 -1°C° 0 mm 1 mps 773 mmHg 36%
    09:00 0°C° 0 mm 1 mps 773 mmHg 33%
    10:00 0°C° 0 mm 1 mps 774 mmHg 30%
    11:00 +1°C° 0 mm 1 mps 773 mmHg 28%
    12:00 +2°C° 0 mm 1 mps 773 mmHg 26%
    13:00 +3°C° 0 mm 1 mps 773 mmHg 24%
    14:00 +2°C° 0 mm 1 mps 772 mmHg 25%
    15:00 +1°C° 0 mm 0 mps 772 mmHg 26%
    16:00 +1°C° 0 mm 0 mps 771 mmHg 27%
    17:00 +1°C° 0 mm 0 mps 771 mmHg 30%
    18:00 +1°C° 0 mm 1 mps 771 mmHg 33%
    19:00 0°C° 0 mm 1 mps 771 mmHg 36%
    20:00 0°C° 0 mm 1 mps 771 mmHg 37%
    21:00 -2°C° 0 mm 2 mps 771 mmHg 38%
    22:00 -2°C° 0 mm 2 mps 771 mmHg 39%
    23:00 -2°C° 0 mm 2 mps 771 mmHg 40%

    Day after tomorrow, 24 February, Sunday

    Time Temperature Precipitation Wind Pressure Humidity
    00:00 -3°C° 0 mm 2 mps 770 mmHg 41%
    01:00 -3°C° 0 mm 2 mps 770 mmHg 41%
    02:00 -2°C° 0 mm 2 mps 770 mmHg 40%
    03:00 0°C° 0 mm 1 mps 770 mmHg 38%
    04:00 +1°C° 0 mm 1 mps 770 mmHg 37%
    05:00 0°C° 0 mm 1 mps 770 mmHg 37%
    06:00 0°C° 0 mm 1 mps 769 mmHg 37%
    07:00 0°C° 0 mm 1 mps 769 mmHg 37%
    08:00 +1°C° 0 mm 1 mps 769 mmHg 34%
    09:00 +2°C° 0 mm 2 mps 769 mmHg 31%
    10:00 +3°C° 0 mm 2 mps 769 mmHg 29%
    11:00 +4°C° 0 mm 2 mps 769 mmHg 30%
    12:00 +4°C° 0 mm 3 mps 769 mmHg 31%
    13:00 +5°C° 0 mm 3 mps 769 mmHg 32%
    14:00 +5°C° 0 mm 3 mps 769 mmHg 37%
    15:00 +6°C° 0 mm 2 mps 768 mmHg 42%
    16:00 +5°C° 0 mm 2 mps 768 mmHg 46%
    17:00 +4°C° 0 mm 2 mps 768 mmHg 49%
    18:00 +3°C° 0 mm 2 mps 769 mmHg 52%
    19:00 +2°C° 0 mm 2 mps 769 mmHg 55%
    20:00 +2°C° 0 mm 2 mps 769 mmHg 57%
    21:00 +2°C° 0 mm 2 mps 769 mmHg 58%
    22:00 +2°C° 0 mm 2 mps 769 mmHg 60%
    23:00 0°C° 0 mm 3 mps 769 mmHg 61%

    25 February, Monday

    Time Temperature Precipitation Wind Pressure Humidity
    00:00 0°C° 0 mm 3 mps 769 mmHg 63%
    01:00 0°C° 0 mm 3 mps 769 mmHg 65%
    02:00 0°C° 0 mm 3 mps 769 mmHg 67%
    03:00 0°C° 0 mm 3 mps 769 mmHg 68%
    04:00 0°C° 0 mm 3 mps 769 mmHg 70%
    05:00 0°C° 0 mm 3 mps 769 mmHg 72%
    06:00 -1°C° 0 mm 3 mps 769 mmHg 74%
    07:00 -1°C° 0 mm 3 mps 769 mmHg 76%
    08:00 +1°C° 0 mm 3 mps 769 mmHg 73%
    09:00 +2°C° 0 mm 3 mps 769 mmHg 70%
    10:00 +4°C° 0 mm 3 mps 770 mmHg 67%
    11:00 +6°C° 0 mm 2 mps 769 mmHg 66%
    12:00 +7°C° 0 mm 2 mps 769 mmHg 64%
    13:00 +8°C° 0 mm 2 mps 769 mmHg 63%
    14:00 +8°C° 0 mm 2 mps 769 mmHg 64%
    15:00 +9°C° 0 mm 2 mps 768 mmHg 66%
    16:00 +9°C° 0 mm 2 mps 768 mmHg 67%
    17:00 +8°C° 0 mm 2 mps 768 mmHg 71%
    18:00 +6°C° 0 mm 2 mps 768 mmHg 76%
    19:00 +5°C° 0 mm 2 mps 768 mmHg 80%
    20:00 +5°C° 0 mm 2 mps 768 mmHg 78%
    21:00 +4°C° 0 mm 3 mps 767 mmHg 77%
    22:00 +3°C° 0 mm 3 mps 767 mmHg 75%
    23:00 +3°C° 0 mm 3 mps 767 mmHg 75%

    26 February, Tuesday

    Time Temperature Precipitation Wind Pressure Humidity
    00:00 +3°C° 0 mm 3 mps 766 mmHg 75%
    01:00 +3°C° 0 mm 4 mps 766 mmHg 76%
    02:00 +1°C° 0 mm 4 mps 765 mmHg 76%
    03:00 +1°C° 0 mm 4 mps 765 mmHg 77%
    04:00 +1°C° 0 mm 4 mps 764 mmHg 78%
    05:00 +1°C° 0 mm 4 mps 764 mmHg 79%
    06:00 +1°C° 0 mm 5 mps 764 mmHg 80%
    07:00 +1°C° 0 mm 5 mps 764 mmHg 81%
    08:00 +2°C° 0 mm 5 mps 763 mmHg 75%
    09:00 +4°C° 0 mm 6 mps 763 mmHg 69%
    10:00 +5°C° 0 mm 6 mps 763 mmHg 63%
    11:00 +7°C° 0 mm 6 mps 763 mmHg 62%
    12:00 +7°C° 0 mm 6 mps 762 mmHg 61%
    13:00 +8°C° 0 mm 6 mps 762 mmHg 59%
    14:00 +8°C° 0 mm 5 mps 762 mmHg 63%
    15:00 +7°C° 0 mm 5 mps 762 mmHg 66%
    16:00 +7°C° 0 mm 4 mps 762 mmHg 69%
    17:00 +6°C° 0 mm 4 mps 762 mmHg 75%
    18:00 +5°C° 0 mm 3 mps 762 mmHg 80%
    19:00 +4°C° 0 mm 3 mps 763 mmHg 86%
    20:00 +4°C° 0 mm 3 mps 763 mmHg 88%
    21:00 +3°C° 0 mm 3 mps 763 mmHg 90%
    22:00 +3°C° 0 mm 3 mps 763 mmHg 91%
    23:00 +3°C° 0 mm 3 mps 763 mmHg 91%

    27 February, Wednesday

    Time Temperature Precipitation Wind Pressure Humidity
    00:00 +2°C° 0 mm 3 mps 763 mmHg 91%
    01:00 +2°C° 0 mm 3 mps 763 mmHg 91%
    02:00 +2°C° 0 mm 2 mps 763 mmHg 90%
    03:00 +2°C° 0 mm 2 mps 763 mmHg 88%
    04:00 +1°C° 0 mm 2 mps 763 mmHg 86%
    05:00 +1°C° 0 mm 2 mps 762 mmHg 84%
    06:00 +1°C° 0 mm 2 mps 762 mmHg 82%
    07:00 +1°C° 0 mm 2 mps 762 mmHg 80%
    08:00 +3°C° 0 mm 1 mps 762 mmHg 72%
    09:00 +5°C° 0 mm 1 mps 762 mmHg 64%
    10:00 +7°C° 0 mm 1 mps 762 mmHg 55%
    11:00 +8°C° 0 mm 1 mps 761 mmHg 51%
    12:00 +8°C° 0 mm 2 mps 761 mmHg 47%
    13:00 +10°C° 0 mm 2 mps 760 mmHg 43%
    14:00 +10°C° 0 mm 2 mps 760 mmHg 45%
    15:00 +10°C° 0 mm 2 mps 759 mmHg 47%
    16:00 +10°C° 0 mm 2 mps 759 mmHg 49%
    17:00 +9°C° 0 mm 2 mps 758 mmHg 56%
    18:00 +8°C° 0 mm 2 mps 758 mmHg 63%
    19:00 +7°C° 0 mm 2 mps 758 mmHg 69%
    20:00 +7°C° 0 mm 2 mps 757 mmHg 74%
    21:00 +6°C° 0 mm 2 mps 757 mmHg 79%
    22:00 +6°C° 0 mm 2 mps 756 mmHg 84%
    23:00 +6°C° 0 mm 2 mps 755 mmHg 86%
    Show more